GW3631 Weather Reports


time (UTC)temp
C
wind
direction
speed
KPH
gust
KPH
rain 1hr
cm
rain 24hr
cm
rain mn
cm
humidity
%
barometer
mb
20260906194602 27 175 4.8 16.1 0.00 0.00 0.00 67 1017.0
20260906193103 28 324 3.2 12.9 0.00 0.00 0.00 67 1016.9
20260906191613 28 85 6.4 14.5 0.00 0.00 0.00 66 1016.7
20260906184604 28 130 4.8 14.5 0.00 0.00 0.00 67 1016.9
20260906183102 28 105 4.8 16.1 0.00 0.00 0.00 68 1017.0
20260906181603 28 210 1.6 8.0 0.00 0.00 0.00 66 1017.1
20260906180115 28 281 1.6 12.9 0.00 0.00 0.00 69 1017.1
20260906174601 28 323 1.6 8.0 0.00 0.00 0.00 70 1017.0
20260906173105 27 77 1.6 9.7 0.00 0.00 0.00 71 1017.1
20260906171606 27 327 3.2 12.9 0.00 0.00 0.00 70 1017.2
20260906170106 27 121 1.6 9.7 0.00 0.00 0.00 72 1017.7
20260906164604 26 293 3.2 14.5 0.00 0.00 0.00 74 1017.9
20260906163122 26 252 3.2 8.0 0.00 0.00 0.00 76 1017.9
20260906161607 26 184 1.6 8.0 0.00 0.00 0.00 78 1017.9
20260906160100 25 231 0.0 8.0 0.00 0.00 0.00 79 1018.3
20260906154601 24 273 0.0 4.8 0.00 0.00 0.00 81 1018.5
20260906153116 23 238 0.0 8.0 0.00 0.00 0.00 82 1018.7
20260906151608 23 0 3.2 8.0 0.00 0.00 0.00 83 1018.6
20260906150106 23 205 3.2 9.7 0.00 0.00 0.00 84 1018.5
20260906144600 22 96 3.2 14.5 0.00 0.00 0.00 86 1018.6
20260906143057 21 139 1.6 6.4 0.00 0.00 0.00 89 1018.8
20260906141601 20 0 0.0 1.6 0.00 0.00 0.00 93 1018.9
20260906140106 20 0 0.0 0.0 0.00 0.00 0.00 96 1019.1
20260906134557 19 0 0.0 0.0 0.00 0.00 0.00 97 1018.9
20260906133121 18 0 0.0 0.0 0.00 0.00 0.00 97 1018.6
20260906131616 17 0 0.0 3.2 0.00 0.00 0.00 96 1018.4
20260906130112 17 0 0.0 1.6 0.00 0.00 0.00 96 1018.4
20260906124603 17 0 0.0 0.0 0.00 0.00 0.00 96 1018.3
20260906123058 16 0 0.0 0.0 0.00 0.00 0.00 96 1018.3
20260906121603 16 0 0.0 1.6 0.00 0.00 0.00 96 1018.1
20260906114557 16 0 0.0 3.2 0.00 0.00 0.00 95 1017.7
20260906113058 16 110 0.0 4.8 0.00 0.00 0.00 95 1017.9
20260906111557 16 0 0.0 0.0 0.00 0.00 0.00 95 1018.0
20260906110058 16 0 0.0 1.6 0.00 0.00 0.00 95 1017.9
20260906104559 16 0 0.0 1.6 0.00 0.00 0.00 95 1018.0
20260906103104 16 0 0.0 1.6 0.00 0.00 0.00 94 1018.1
20260906101559 16 0 0.0 0.0 0.00 0.00 0.00 94 1018.2
20260906100111 16 0 0.0 0.0 0.00 0.00 0.00 94 1018.1
20260906094607 17 0 0.0 0.0 0.00 0.00 0.00 94 1017.6
20260906093100 17 0 0.0 0.0 0.00 0.00 0.00 94 1017.4
20260906091559 17 0 0.0 1.6 0.00 0.00 0.00 94 1017.1
20260906090110 17 0 0.0 3.2 0.00 0.00 0.00 94 1017.0
20260906084602 17 0 0.0 4.8 0.00 0.00 0.00 94 1017.0
20260906083106 17 0 0.0 3.2 0.00 0.00 0.00 93 1017.0
20260906081601 17 105 0.0 4.8 0.00 0.00 0.00 93 1017.1
20260906074610 18 0 0.0 0.0 0.00 0.00 0.00 92 1017.1
20260906073118 18 0 0.0 1.6 0.00 0.00 0.00 92 1017.2
20260906071602 18 0 0.0 1.6 0.00 0.00 0.00 92 1017.6
20260906064602 18 0 0.0 1.6 0.00 0.00 0.00 92 1018.0
20260906063103 18 0 0.0 0.0 0.00 0.00 0.00 92 1017.9
20260906061602 18 0 0.0 0.0 0.00 0.00 0.00 92 1017.8
20260906060106 18 0 0.0 0.0 0.00 0.00 0.00 91 1017.7
20260906054602 18 0 0.0 0.0 0.00 0.00 0.00 91 1017.7
20260906053056 18 0 0.0 0.0 0.00 0.00 0.00 90 1017.7
20260906051602 18 0 0.0 1.6 0.00 0.00 0.00 90 1017.8
20260906050107 19 146 0.0 4.8 0.00 0.00 0.00 90 1017.5
20260906044600 19 124 0.0 3.2 0.00 0.00 0.00 90 1017.3
20260906043101 19 0 0.0 4.8 0.00 0.00 0.00 89 1017.4
20260906041601 20 0 0.0 1.6 0.00 0.00 0.00 89 1017.6
20260906040100 20 0 0.0 3.2 0.00 0.00 0.00 88 1017.4
20260906034602 20 0 0.0 1.6 0.00 0.00 0.00 88 1017.4
20260906033102 20 0 0.0 1.6 0.00 0.00 0.00 87 1017.4
20260906031603 20 0 0.0 1.6 0.00 0.00 0.00 87 1017.4
20260906024559 20 0 0.0 0.0 0.00 0.00 0.00 86 1017.6
20260906023103 20 0 0.0 0.0 0.00 0.00 0.00 85 1017.7
20260906021606 21 0 0.0 0.0 0.00 0.00 0.00 85 1017.8
20260906020101 21 0 0.0 0.0 0.00 0.00 0.00 84 1017.4
20260906014611 21 0 0.0 0.0 0.00 0.00 0.00 83 1017.5
20260906013058 22 0 0.0 0.0 0.00 0.00 0.00 81 1017.2
20260906011619 22 0 0.0 1.6 0.00 0.00 0.00 80 1016.8
20260906010105 23 0 0.0 3.2 0.00 0.00 0.00 78 1016.4
20260906004605 23 0 0.0 8.0 0.00 0.00 0.00 76 1016.1
20260906003059 24 341 1.6 8.0 0.00 0.00 0.00 75 1015.7
20260906001604 25 59 3.2 9.7 0.00 0.00 0.00 73 1015.6
20260905234558 26 87 3.2 11.3 0.00 0.00 0.00 71 1015.1
20260905233121 26 114 3.2 12.9 0.00 0.00 0.00 70 1014.7
20260905231602 26 105 1.6 14.5 0.00 0.00 0.00 70 1014.5
20260905230103 27 113 4.8 16.1 0.00 0.00 0.00 69 1014.4
20260905224617 27 107 6.4 17.7 0.00 0.00 0.00 69 1014.3
20260905223107 27 103 6.4 17.7 0.00 0.00 0.00 69 1014.8
20260905221559 28 160 3.2 19.3 0.00 0.00 0.00 67 1015.2
20260905220105 27 121 0.0 9.7 0.00 0.00 0.00 68 1015.3
20260905214601 27 143 4.8 17.7 0.00 0.00 0.00 67 1015.5
20260905213102 27 87 3.2 11.3 0.00 0.00 0.00 67 1015.6
20260905211604 27 106 3.2 12.9 0.00 0.00 0.00 68 1015.8
20260905204602 27 105 4.8 16.1 0.00 0.00 0.00 67 1015.9
20260905203106 28 157 4.8 12.9 0.00 0.00 0.00 67 1016.1
20260905201609 28 111 1.6 6.4 0.00 0.00 0.00 65 1016.3